Clawson, MI

10:25 AM EST on December 06, 2016 (GMT -0500)
Troy

Weather History for KVLL - October, 2012

Change the Weather History Date:

Saturday, October 20, 2012

  Actual Average (KDET) Record (KDET)
Temperature  
Mean Temperature 50 °F -  
Max Temperature 55 °F 56 °F 77 °F (1953)
Min Temperature 45 °F 41 °F 26 °F (1952)
Degree Days  
Heating Degree Days 15    
Moisture  
Dew Point 43 °F    
Average Humidity 79    
Maximum Humidity 92    
Minimum Humidity 54    
Precipitation  
Precipitation 0.00 in - - ()
Sea Level Pressure  
Sea Level Pressure 29.73 in    
Wind  
Wind Speed 6 mph (WSW)    
Max Wind Speed 15 mph    
Max Gust Speed 21 mph    
Visibility 9 miles    
Events Rain    
Averages and records for this station are not official NWS values.
T = Trace of Precipitation, MM = Missing Value Source: NWS Daily Summary

Daily Weather History Graph

Daily Weather History Graph

Search for Another Location

Airport or City:

Trip Planner

Search our weather history database for the weather conditions in past years. The results will help you decide how hot, cold, wet, or windy it might be!

Date:

Astronomy

Oct. 20, 2012 Rise Set
Actual Time 7:52 AM EDT 6:41 PM EDT
Civil Twilight 7:23 AM EDT 7:10 PM EDT
Nautical Twilight 6:50 AM EDT 7:43 PM EDT
Astronomical Twilight 6:18 AM EDT 8:15 PM EDT
Moon 1:30 PM EDT (10/20) 11:23 PM EDT (10/20)
Length of Visible Light 11h 46m
Length of Day
10h 49m
Waxing Crescent, 34% of the Moon is Illuminated
Oct 20
Waxing Crescent
Oct 21
First Quarter
Oct 29
Full
Nov 6
Last Quarter
Nov 13
New

Hourly Weather History & Observations

Time (EDT) Temp. Windchill Dew Point Humidity Pressure Visibility Wind Dir Wind Speed Gust Speed Precip Events Conditions
12:15 AM 46.0 °F 42.5 °F 43.2 °F 90% 29.61 in 10.0 mi SSW 6.9 mph - N/A   Drizzle
12:34 AM 45.9 °F 42.9 °F 43.2 °F 90% 29.61 in 10.0 mi SSW 5.8 mph - N/A Rain Light Rain
12:55 AM 46.0 °F 44.8 °F 43.3 °F 90% 29.61 in 10.0 mi South 3.5 mph - N/A Rain Rain
1:14 AM 46.2 °F 43.3 °F 43.7 °F 91% 29.61 in 10.0 mi SW 5.8 mph - N/A Rain Rain
1:35 AM 46.4 °F 45.2 °F 43.7 °F 90% 29.61 in 10.0 mi SSW 3.5 mph - N/A Rain Light Rain
1:55 AM 46.2 °F 45.0 °F 43.7 °F 91% 29.61 in 7.0 mi WSW 3.5 mph - N/A Rain Light Rain
2:14 AM 46.4 °F 45.2 °F 43.7 °F 90% 29.61 in 10.0 mi SW 3.5 mph - N/A Rain Light Rain
2:55 AM 46.4 °F 44.3 °F 43.9 °F 91% 29.61 in 7.0 mi SSW 4.6 mph - N/A   Light Drizzle
3:14 AM 46.4 °F 45.2 °F 44.1 °F 92% 29.61 in 10.0 mi SW 3.5 mph - N/A   Overcast
3:35 AM 46.4 °F 43.5 °F 44.1 °F 92% 29.62 in 5.0 mi SW 5.8 mph - N/A   Drizzle
3:55 AM 46.4 °F 43.5 °F 43.9 °F 91% 29.62 in 7.0 mi SW 5.8 mph - N/A   Light Drizzle
4:14 AM 46.4 °F 44.3 °F 43.9 °F 91% 29.62 in 10.0 mi SW 4.6 mph - N/A   Light Drizzle
4:35 AM 46.4 °F 43.5 °F 44.1 °F 92% 29.62 in 10.0 mi SW 5.8 mph - N/A   Light Drizzle
4:55 AM 46.4 °F 45.2 °F 44.1 °F 92% 29.62 in 7.0 mi SW 3.5 mph - N/A   Overcast
5:15 AM 46.6 °F - 44.4 °F 92% 29.62 in 10.0 mi SW 4.6 mph - N/A   Overcast
5:35 AM 46.6 °F - 44.2 °F 92% 29.63 in 10.0 mi SW 5.8 mph - N/A   Overcast
5:54 AM 46.8 °F - 44.2 °F 91% 29.63 in 10.0 mi WSW 5.8 mph - N/A   Overcast
6:15 AM 46.6 °F - 44.1 °F 91% 29.64 in 10.0 mi SW 4.6 mph - N/A   Overcast
6:35 AM 46.6 °F - 44.1 °F 91% 29.64 in 7.0 mi SW 4.6 mph - N/A   Overcast
6:54 AM 46.8 °F - 44.2 °F 91% 29.64 in 7.0 mi SW 5.8 mph - N/A   Overcast
7:15 AM 46.8 °F - 44.2 °F 91% 29.64 in 7.0 mi WSW 4.6 mph - N/A   Overcast
7:35 AM 46.8 °F - 44.2 °F 91% 29.65 in 7.0 mi WSW 4.6 mph - N/A   Overcast
7:54 AM 46.6 °F - 44.1 °F 91% 29.65 in 5.0 mi SW 5.8 mph - N/A   Overcast
8:15 AM 46.8 °F - 44.2 °F 91% 29.66 in 5.0 mi SW 5.8 mph - N/A   Overcast
8:35 AM 46.8 °F - 43.7 °F 89% 29.67 in 7.0 mi SW 8.1 mph - N/A   Overcast
8:54 AM 46.8 °F - 43.7 °F 89% 29.67 in 7.0 mi WSW 5.8 mph - N/A   Overcast
9:15 AM 47.3 °F - 44.1 °F 88% 29.67 in 5.0 mi WSW 4.6 mph - N/A   Light Drizzle
9:35 AM 47.3 °F - 43.9 °F 88% 29.68 in 7.0 mi WSW 6.9 mph - N/A   Overcast
9:54 AM 47.8 °F - 43.9 °F 86% 29.68 in 10.0 mi WSW 6.9 mph - N/A   Overcast
10:15 AM 48.4 °F - 44.6 °F 87% 29.68 in 10.0 mi WSW 6.9 mph - N/A   Overcast
10:34 AM 48.7 °F - 44.6 °F 86% 29.69 in 10.0 mi WSW 6.9 mph - N/A   Overcast
10:55 AM 49.8 °F - 44.1 °F 81% 29.69 in 10.0 mi West 11.5 mph - N/A   Overcast
11:15 AM 50.4 °F - 43.5 °F 77% 29.70 in 10.0 mi West 6.9 mph - N/A   Overcast
11:34 AM 50.9 °F - 42.6 °F 73% 29.70 in 10.0 mi West 9.2 mph - N/A   Overcast
11:55 AM 50.9 °F - 42.3 °F 72% 29.71 in 10.0 mi West 8.1 mph 16.1 mph N/A   Overcast
12:15 PM 51.8 °F - 42.4 °F 70% 29.71 in 10.0 mi West 8.1 mph 16.1 mph N/A   Overcast
12:35 PM 52.7 °F - 42.1 °F 67% 29.72 in 10.0 mi West 11.5 mph - N/A   Overcast
12:55 PM 52.7 °F - 42.1 °F 67% 29.72 in 10.0 mi WSW 9.2 mph 16.1 mph N/A   Overcast
1:14 PM 53.2 °F - 41.4 °F 64% 29.72 in 10.0 mi West 9.2 mph 18.4 mph N/A   Overcast
1:35 PM 55.6 °F - 41.5 °F 59% 29.72 in 10.0 mi West 12.7 mph 17.3 mph N/A   Mostly Cloudy
1:54 PM 55.8 °F - 40.1 °F 56% 29.72 in 10.0 mi West 10.4 mph 20.7 mph N/A   Mostly Cloudy
2:15 PM 54.9 °F - 39.6 °F 56% 29.72 in 10.0 mi West 11.5 mph - N/A   Overcast
2:35 PM 55.0 °F - 38.8 °F 54% 29.73 in 10.0 mi West 15.0 mph 19.6 mph N/A   Overcast
2:54 PM 54.9 °F - 39.2 °F 56% 29.73 in 10.0 mi West 10.4 mph - N/A   Overcast
3:15 PM 54.9 °F - 39.2 °F 56% 29.73 in 10.0 mi West 11.5 mph 17.3 mph N/A   Overcast
3:35 PM 54.7 °F - 39.2 °F 56% 29.74 in 10.0 mi West 6.9 mph - N/A   Overcast
3:54 PM 54.9 °F - 39.2 °F 56% 29.75 in 10.0 mi West 10.4 mph 18.4 mph N/A   Overcast
4:15 PM 55.4 °F - 39.4 °F 55% 29.76 in 10.0 mi West 9.2 mph 17.3 mph N/A   Overcast
4:35 PM 55.4 °F - 39.4 °F 55% 29.76 in 10.0 mi West 11.5 mph - N/A   Overcast
4:55 PM 55.4 °F - 39.6 °F 55% 29.77 in 10.0 mi WNW 8.1 mph 16.1 mph N/A   Overcast
5:15 PM 54.9 °F - 40.1 °F 58% 29.78 in 10.0 mi West 8.1 mph - N/A   Overcast
5:34 PM 54.9 °F - 40.3 °F 58% 29.80 in 10.0 mi WNW 5.8 mph - N/A   Overcast
5:55 PM 54.1 °F - 41.4 °F 62% 29.81 in 10.0 mi West 10.4 mph - N/A Rain Light Rain
6:15 PM 54.1 °F - 41.9 °F 63% 29.82 in 10.0 mi West 8.1 mph - N/A   Overcast
6:34 PM 52.2 °F - 44.4 °F 75% 29.83 in 10.0 mi West 9.2 mph - N/A Rain Rain
6:55 PM 51.8 °F - 44.8 °F 77% 29.83 in 10.0 mi West 5.8 mph - N/A   Overcast
7:15 PM 51.3 °F - 45.0 °F 79% 29.84 in 10.0 mi West 6.9 mph - N/A   Overcast
7:34 PM 51.3 °F - 45.3 °F 80% 29.84 in 10.0 mi West 5.8 mph - N/A   Overcast
7:55 PM 50.5 °F - 44.6 °F 80% 29.85 in 10.0 mi West 6.9 mph - N/A   Mostly Cloudy
8:15 PM 50.0 °F - 44.6 °F 82% 29.85 in 10.0 mi West 3.5 mph - N/A   Scattered Clouds
8:34 PM 49.3 °F - 44.1 °F 82% 29.85 in 10.0 mi WSW 4.6 mph - N/A   Scattered Clouds
8:55 PM 48.7 °F - 44.2 °F 84% 29.85 in 10.0 mi West 4.6 mph - N/A   Scattered Clouds
9:15 PM 48.2 °F - 43.9 °F 85% 29.86 in 10.0 mi WSW 5.8 mph - N/A   Clear
9:35 PM 48.2 °F - 43.9 °F 85% 29.87 in 10.0 mi West 4.6 mph - N/A   Clear
9:55 PM 48.0 °F - 43.9 °F 86% 29.88 in 10.0 mi WSW 6.9 mph - N/A   Clear
10:14 PM 48.2 °F - 43.7 °F 84% 29.89 in 10.0 mi WSW 8.1 mph - N/A   Clear
10:35 PM 47.7 °F - 42.8 °F 83% 29.90 in 10.0 mi West 6.9 mph - N/A   Clear
10:55 PM 47.5 °F - 42.1 °F 82% 29.91 in 10.0 mi West 5.8 mph - N/A   Clear
11:14 PM 47.3 °F - 41.9 °F 82% 29.91 in 10.0 mi West 6.9 mph - N/A   Clear
11:35 PM 47.5 °F - 41.9 °F 81% 29.91 in 10.0 mi West 6.9 mph - N/A   Clear
11:55 PM 47.3 °F - 41.9 °F 82% 29.92 in 10.0 mi West 8.1 mph - N/A   Clear